Location: Cerezo de Arriba
(41.2389°N, 3.5585°W)
Time: 04:45:57
(UTC+00:00)

ISS - Pass Details

Date: 19 May 2025
Orbit: 415 x 417 km, 51.6° (Epoch: 24 June)

Event Time Altitude Azimuth Distance (km) Brightness Sun altitude
Rises 23:22:03 0° 304° (NW) 2,358 0.7 -27.7°
Reaches altitude 10° 23:24:09 10° 302° (WNW) 1,491 -0.5 -27.8°
Enters shadow 23:24:29 12° 301° (WNW) 1,357 -0.7 -27.8°
